This demonstration page uses our WeatherBlox Daily Observations layout. Learn more.

39.08367, -84.50855

Hourly Observations for October 23, 2019

Temp ( °F °C ) Dew Point ( °F °C ) Humidity (%) Winds ( mph kmh ) Pressure ( in mb ) Visibility ( mi km ) Precip ( " mm )
12:53 am 00:53 Clear 47 8.3 39 3.9 74 74 SSW 8 13 29.97 1015 10 16.0934 0 0
1:53 am 01:53 Clear 49 9.4 39 3.9 69 69 SW 9 15 29.98 1015 10 16.0934 0 0
2:53 am 02:53 Clear 49 9.4 38 3.3 66 66 SW 9 15 30 1016 10 16.0934 0 0
3:53 am 03:53 Clear 47 8.3 37 2.8 69 69 SW 9 15 30.01 1016 10 16.0934 0 0
4:53 am 04:53 Clear 45 7.2 36 2.2 71 71 WSW 6 9 30.03 1017 10 16.0934 0 0
5:53 am 05:53 Clear 43 6.1 35 1.7 74 74 SSW 6 9 30.05 1018 10 16.0934 0 0
6:53 am 06:53 Clear 41 5 34 1.1 76 76 SW 7 11 30.08 1019 10 16.0934 0 0
7:53 am 07:53 Clear 40 4.4 36 2.2 86 86 ESE 3 6 30.09 1019 10 16.0934 0 0
8:53 am 08:53 Sunny 43 6.1 37 2.8 80 80 Calm 30.12 1020 10 16.0934 0 0
9:53 am 09:53 Sunny 49 9.4 36 2.2 61 61 SW 9 15 30.14 1021 10 16.0934 0 0
10:53 am 10:53 Sunny 54 12.2 35 1.7 49 49 WSW 8 13 30.15 1021 10 16.0934 0 0
11:53 am 11:53 Sunny 58 14.4 33 0.6 39 39 SSW 13 20 30.16 1021 10 16.0934 0 0
12:53 pm 12:53 Sunny 61 16.1 33 0.6 35 35 SSW 10 17 30.16 1021 10 16.0934 0 0
1:53 pm 13:53 Sunny 63 17.2 33 0.6 33 33 SSW 15 24 30.14 1021 10 16.0934 0 0
2:53 pm 14:53 Sunny 64 17.8 33 0.6 32 32 S 18 30 30.13 1020 10 16.0934 0 0
3:53 pm 15:53 Sunny 66 18.9 33 0.6 29 29 SSW 9 15 30.11 1020 10 16.0934 0 0
4:53 pm 16:53 Sunny 64 17.8 33 0.6 32 32 SSW 10 17 30.11 1020 10 16.0934 0 0
5:53 pm 17:53 Sunny 62 16.7 35 1.7 37 37 SSW 9 15 30.11 1020 10 16.0934 0 0
6:53 pm 18:53 Clear 56 13.3 36 2.2 47 47 S 5 7 30.13 1020 10 16.0934 0 0
7:53 pm 19:53 Clear 52 11.1 35 1.7 53 53 SSW 6 9 30.15 1021 10 16.0934 0 0
8:53 pm 20:53 Clear 50 10 36 2.2 59 59 SSW 6 9 30.16 1021 10 16.0934 0 0
9:53 pm 21:53 Clear 49 9.4 35 1.7 59 59 SSW 7 11 30.17 1022 10 16.0934 0 0
10:53 pm 22:53 Clear 49 9.4 36 2.2 61 61 S 9 15 30.17 1022 10 16.0934 0 0
11:53 pm 23:53 Clear 51 10.6 36 2.2 56 56 S 7 11 30.15 1021 10 16.0934 0 0

Powered by AerisWeather